ES'HAIL 1 (39233 NORAD) Tracking and Keplerian Element Data

This shows tracking and keplerian element data for the satellite.

Feedback or suggestion? Click here.




ElementValue
Catalog39233
NameES'HAIL 1
Epoch Orbit3801
Epoch Day13.08912226
Epoch Year2024
RAAN17.4355
Inclination0.0477
Eccentricity0.0002243
Argument of Perigee292.7348
Mean Anonmoly219.4491
Mean Motion1.00272239
Decay Rate1.51E-06
L11 39233U 13044A 24013.08912226 .00000151 00000+0 00000+0 0 9997
L22 39233 0.0477 17.4355 0002243 292.7348 219.4491 1.00272239 38019



Live tracking and technical data element details for ES'HAIL 1 (NORAD 39233). ES'HAIL 1 can be tracked NOW for your location showing map with azimuth and elevation plus other details from your city location.







IsCatalogInMostPopularTable: catalog: 39233, numindb: 1686
Update: records affected: 1



GetName: 39233 ES'HAIL 1

Hit Count: updated at: Sat, 20 Apr 2024 09:57:52 GMT